Time,TemperatureF,DewpointF,PressureIn,WindDirection,WindDirectionDegrees,WindSpeedMPH,WindSpeedGustMPH,Humidity,HourlyPrecipIn,Conditions,Clouds,dailyrainin,SolarRadiationWatts/m^2,SoftwareType,DateUTC
2013-01-30 00:00:00,35.6,34.6,29.47,West,267,0.0,0.0,96,0.04,RA,,1.87,0.0,WeatherDisplay:10.37,2013-01-30 06:00:00,
2013-01-30 00:05:00,35.6,34.6,29.47,West,267,0.0,0.0,96,0.05,RA,,0.01,0.0,WeatherDisplay:10.37,2013-01-30 06:05:00,
2013-01-30 00:10:00,35.6,34.6,29.46,WNW,288,3.5,3.5,96,0.05,RA,,0.01,0.0,WeatherDisplay:10.37,2013-01-30 06:10:00,
2013-01-30 00:15:00,35.5,34.5,29.46,West,273,0.0,0.0,96,0.04,CLR,,0.01,0.0,WeatherDisplay:10.37,2013-01-30 06:15:00,
2013-01-30 00:20:00,35.5,34.5,29.46,West,273,0.0,0.0,96,0.05,RA,,0.02,0.0,WeatherDisplay:10.37,2013-01-30 06:20:00,
2013-01-30 00:25:00,35.5,34.5,29.45,WNW,286,0.0,0.0,96,0.05,RA,,0.02,0.0,WeatherDisplay:10.37,2013-01-30 06:25:00,
2013-01-30 00:30:00,35.5,34.5,29.45,WNW,286,0.0,0.0,96,0.05,,,0.02,0.0,WeatherDisplay:10.37,2013-01-30 06:30:00,
2013-01-30 00:35:00,35.5,34.5,29.45,WNW,287,1.1,1.1,96,0.04,CLR,,0.02,0.0,WeatherDisplay:10.37,2013-01-30 06:35:00,
2013-01-30 00:40:00,35.5,34.5,29.45,West,281,3.5,3.5,96,0.04,CLR,,0.02,0.0,WeatherDisplay:10.37,2013-01-30 06:40:00,
2013-01-30 00:45:00,35.6,34.6,29.45,West,281,0.0,0.0,96,0.03,CLR,,0.02,0.0,WeatherDisplay:10.37,2013-01-30 06:45:00,
2013-01-30 00:50:00,35.6,34.6,29.46,West,281,1.1,1.1,96,0.03,CLR,,0.02,0.0,WeatherDisplay:10.37,2013-01-30 06:50:00,
2013-01-30 00:55:00,35.6,34.6,29.47,West,281,0.0,0.0,96,0.02,CLR,,0.02,0.0,WeatherDisplay:10.37,2013-01-30 06:55:00,
2013-01-30 01:00:00,35.6,34.6,29.47,West,281,0.0,0.0,96,0.03,RA,,0.03,0.0,WeatherDisplay:10.37,2013-01-30 07:00:00,
2013-01-30 01:05:00,35.6,34.6,29.47,WNW,282,1.1,0.0,96,0.02,RA,,0.03,0.0,WeatherDisplay:10.37,2013-01-30 07:05:00,
2013-01-30 01:10:00,35.6,34.6,29.47,WNW,282,0.0,0.0,96,0.02,,,0.03,0.0,WeatherDisplay:10.37,2013-01-30 07:10:00,
2013-01-30 01:15:00,35.6,34.6,29.47,WNW,282,0.0,0.0,96,0.02,CLR,,0.03,0.0,WeatherDisplay:10.37,2013-01-30 07:15:00,
2013-01-30 01:20:00,35.6,34.6,29.48,NNW,333,1.0,1.0,96,0.02,RA,,0.04,0.0,WeatherDisplay:10.37,2013-01-30 07:20:00,
2013-01-30 01:25:00,35.7,34.7,29.47,WNW,285,0.0,0.0,96,0.02,RA,,0.04,0.0,WeatherDisplay:10.37,2013-01-30 07:25:00,
2013-01-30 01:30:00,35.8,34.8,29.46,WNW,285,0.0,0.0,96,0.02,,,0.04,0.0,WeatherDisplay:10.37,2013-01-30 07:30:00,
2013-01-30 01:35:00,35.9,34.9,29.46,WNW,285,0.0,0.0,96,0.03,RA,,0.05,0.0,WeatherDisplay:10.37,2013-01-30 07:35:00,
2013-01-30 01:40:00,35.9,34.9,29.46,WNW,290,0.0,0.0,96,0.03,RA,,0.05,0.0,WeatherDisplay:10.37,2013-01-30 07:40:00,
2013-01-30 01:45:00,35.8,34.8,29.46,NNW,337,3.5,3.5,96,0.03,CLR,,0.05,0.0,WeatherDisplay:10.37,2013-01-30 07:45:00,
2013-01-30 01:50:00,35.7,34.7,29.45,NW,315,0.0,0.0,96,0.03,CLR,,0.05,0.0,WeatherDisplay:10.37,2013-01-30 07:50:00,
2013-01-30 01:55:00,35.5,34.5,29.44,WNW,297,0.0,0.0,96,0.04,RA,,0.06,0.0,WeatherDisplay:10.37,2013-01-30 07:55:00,
2013-01-30 02:00:00,35.4,34.4,29.44,NNW,347,0.0,0.0,96,0.03,RA,,0.06,0.0,WeatherDisplay:10.37,2013-01-30 08:00:00,
2013-01-30 02:05:00,35.3,34.3,29.44,WNW,288,0.0,0.0,96,0.03,CLR,,0.06,0.0,WeatherDisplay:10.37,2013-01-30 08:05:00,
2013-01-30 02:10:00,35.2,34.2,29.43,WNW,283,2.3,2.3,96,0.03,CLR,,0.06,0.0,WeatherDisplay:10.37,2013-01-30 08:10:00,
2013-01-30 02:15:00,35.0,34.0,29.43,West,274,1.1,1.1,96,0.03,CLR,,0.06,0.0,WeatherDisplay:10.37,2013-01-30 08:15:00,
2013-01-30 02:20:00,34.9,33.9,29.43,NW,318,0.0,0.0,96,0.02,CLR,,0.06,0.0,WeatherDisplay:10.37,2013-01-30 08:20:00,
2013-01-30 02:25:00,34.8,33.8,29.44,North,356,0.0,0.0,96,0.02,CLR,,0.06,0.0,WeatherDisplay:10.37,2013-01-30 08:25:00,
2013-01-30 02:30:00,34.8,33.8,29.44,NW,324,1.0,1.0,96,0.02,CLR,,0.06,0.0,WeatherDisplay:10.37,2013-01-30 08:30:00,
2013-01-30 02:35:00,34.6,33.6,29.44,North,356,3.5,3.5,96,0.01,CLR,,0.06,0.0,WeatherDisplay:10.37,2013-01-30 08:35:00,
2013-01-30 02:40:00,34.6,33.6,29.44,North,352,0.0,0.0,96,0.01,CLR,,0.06,0.0,WeatherDisplay:10.37,2013-01-30 08:40:00,
2013-01-30 02:45:00,34.5,33.5,29.44,NNW,347,0.0,0.0,96,0.01,CLR,,0.06,0.0,WeatherDisplay:10.37,2013-01-30 08:45:00,
2013-01-30 02:50:00,34.5,33.5,29.44,NNW,333,0.0,0.0,96,0.01,CLR,,0.06,0.0,WeatherDisplay:10.37,2013-01-30 08:50:00,
2013-01-30 02:55:00,34.5,33.5,29.44,NNW,334,0.0,0.0,96,0.00,CLR,,0.06,0.0,WeatherDisplay:10.37,2013-01-30 08:55:00,
2013-01-30 03:00:00,34.5,33.5,29.44,NNW,336,2.3,2.3,96,0.00,CLR,,0.06,0.0,WeatherDisplay:10.37,2013-01-30 09:00:00,
2013-01-30 03:05:00,34.4,33.4,29.43,NNW,336,1.1,0.0,96,0.00,CLR,,0.06,0.0,WeatherDisplay:10.37,2013-01-30 09:05:00,
2013-01-30 03:10:00,34.4,33.4,29.44,NNW,336,0.0,0.0,96,0.00,CLR,,0.06,0.0,WeatherDisplay:10.37,2013-01-30 09:10:00,
2013-01-30 03:15:00,34.3,33.3,29.45,NNW,342,0.0,0.0,96,0.01,RA,,0.07,0.0,WeatherDisplay:10.37,2013-01-30 09:15:00,
2013-01-30 03:20:00,34.3,33.3,29.46,NNW,342,0.0,0.0,96,0.01,RA,,0.07,0.0,WeatherDisplay:10.37,2013-01-30 09:20:00,
2013-01-30 03:25:00,34.3,33.3,29.45,NNW,342,0.0,0.0,96,0.01,CLR,,0.07,0.0,WeatherDisplay:10.37,2013-01-30 09:25:00,
2013-01-30 03:30:00,34.2,33.2,29.46,SSW,206,2.3,2.3,96,0.02,RA,,0.08,0.0,WeatherDisplay:10.37,2013-01-30 09:30:00,
2013-01-30 03:35:00,34.3,33.3,29.47,SSW,206,0.0,0.0,96,0.03,RA,,0.09,0.0,WeatherDisplay:10.37,2013-01-30 09:35:00,
2013-01-30 03:40:00,34.3,33.3,29.45,WNW,289,0.0,0.0,96,0.03,RA,,0.09,0.0,WeatherDisplay:10.37,2013-01-30 09:40:00,
2013-01-30 03:45:00,34.1,33.1,29.43,WNW,282,0.0,0.0,96,0.04,RA,,0.10,0.0,WeatherDisplay:10.37,2013-01-30 09:45:00,
2013-01-30 03:50:00,34.0,33.0,29.44,WNW,282,0.0,0.0,96,0.05,RA,,0.11,0.0,WeatherDisplay:10.37,2013-01-30 09:50:00,
2013-01-30 03:55:00,34.0,33.0,29.43,WNW,294,2.3,2.3,96,0.06,RA,,0.12,0.0,WeatherDisplay:10.37,2013-01-30 09:55:00,
2013-01-30 04:00:00,33.9,32.9,29.45,NW,320,0.0,0.0,96,0.06,RA,,0.12,0.0,WeatherDisplay:10.37,2013-01-30 10:00:00,
2013-01-30 04:05:00,33.8,32.8,29.46,WNW,300,0.0,0.0,96,0.06,CLR,,0.12,0.0,WeatherDisplay:10.37,2013-01-30 10:05:00,
2013-01-30 04:10:00,33.8,32.8,29.48,WNW,300,0.0,0.0,96,0.06,CLR,,0.12,0.0,WeatherDisplay:10.37,2013-01-30 10:10:00,
2013-01-30 04:15:00,33.7,32.7,29.48,WNW,300,0.0,0.0,96,0.06,RA,,0.13,0.0,WeatherDisplay:10.37,2013-01-30 10:15:00,
2013-01-30 04:20:00,33.7,32.7,29.48,WNW,300,0.0,0.0,96,0.06,RA,,0.13,0.0,WeatherDisplay:10.37,2013-01-30 10:20:00,
2013-01-30 04:25:00,33.7,32.7,29.46,WNW,300,0.0,0.0,96,0.07,RA,,0.14,0.0,WeatherDisplay:10.37,2013-01-30 10:25:00,
2013-01-30 04:30:00,33.6,32.6,29.45,NNW,336,1.1,0.0,96,0.06,RA,,0.14,0.0,WeatherDisplay:10.37,2013-01-30 10:30:00,
2013-01-30 04:35:00,33.6,32.6,29.46,NNW,336,0.0,0.0,96,0.05,,,0.14,0.0,WeatherDisplay:10.37,2013-01-30 10:35:00,
2013-01-30 04:40:00,33.5,32.5,29.46,NNW,336,0.0,0.0,96,0.05,CLR,,0.14,0.0,WeatherDisplay:10.37,2013-01-30 10:40:00,
2013-01-30 04:45:00,33.5,32.5,29.44,NNW,336,0.0,0.0,96,0.05,RA,,0.15,0.0,WeatherDisplay:10.37,2013-01-30 10:45:00,
2013-01-30 04:50:00,33.5,32.5,29.44,NNW,336,0.0,0.0,96,0.04,RA,,0.15,0.0,WeatherDisplay:10.37,2013-01-30 10:50:00,
2013-01-30 04:55:00,33.4,32.4,29.40,NNW,336,0.0,0.0,96,0.03,,,0.15,0.0,WeatherDisplay:10.37,2013-01-30 10:55:00,
2013-01-30 05:00:00,33.3,32.3,29.40,NNW,336,0.0,0.0,96,0.03,CLR,,0.15,0.0,WeatherDisplay:10.37,2013-01-30 11:00:00,
2013-01-30 05:05:00,33.2,32.2,29.39,NNW,336,0.0,0.1,96,0.03,CLR,,0.15,0.0,WeatherDisplay:10.37,2013-01-30 11:05:00,
2013-01-30 05:10:00,33.1,32.1,29.38,NNW,336,0.0,0.0,96,0.03,CLR,,0.15,0.0,WeatherDisplay:10.37,2013-01-30 11:10:00,
2013-01-30 05:15:00,33.0,32.0,29.37,NNE,29,0.0,0.0,96,0.02,CLR,,0.15,0.0,WeatherDisplay:10.37,2013-01-30 11:15:00,
2013-01-30 05:20:00,33.0,32.0,29.38,NNE,21,3.5,3.5,96,0.02,CLR,,0.15,0.0,WeatherDisplay:10.37,2013-01-30 11:20:00,
2013-01-30 05:25:00,32.9,31.9,29.37,NNE,26,2.3,2.3,96,0.01,CLR,,0.15,0.0,WeatherDisplay:10.37,2013-01-30 11:25:00,
2013-01-30 05:30:00,32.8,31.8,29.39,NNE,25,1.1,0.0,96,0.01,CLR,,0.15,0.0,WeatherDisplay:10.37,2013-01-30 11:30:00,
2013-01-30 05:35:00,32.7,31.7,29.41,NW,305,1.1,0.0,96,0.01,CLR,,0.15,0.0,WeatherDisplay:10.37,2013-01-30 11:35:00,
2013-01-30 05:40:00,32.7,31.7,29.41,NNW,327,0.0,0.0,96,0.01,CLR,,0.15,0.0,WeatherDisplay:10.37,2013-01-30 11:40:00,
2013-01-30 05:45:00,32.7,31.7,29.41,NW,306,2.3,2.3,96,0.00,CLR,,0.15,0.0,WeatherDisplay:10.37,2013-01-30 11:45:00,
2013-01-30 05:50:00,32.6,31.6,29.41,NW,317,1.1,1.1,96,0.00,CLR,,0.15,0.0,WeatherDisplay:10.37,2013-01-30 11:50:00,
2013-01-30 05:55:00,32.6,31.6,29.41,North,2,0.0,0.0,96,0.00,CLR,,0.15,0.0,WeatherDisplay:10.37,2013-01-30 11:55:00,
2013-01-30 06:00:00,32.6,31.6,29.40,North,11,1.1,1.1,96,0.00,CLR,,0.15,0.0,WeatherDisplay:10.37,2013-01-30 12:00:00,
2013-01-30 06:05:00,32.5,31.5,29.40,WNW,285,3.5,3.5,96,0.00,CLR,,0.15,0.0,WeatherDisplay:10.37,2013-01-30 12:05:00,
2013-01-30 06:10:00,32.5,31.5,29.39,West,263,2.3,0.0,96,0.00,CLR,,0.15,0.0,WeatherDisplay:10.37,2013-01-30 12:10:00,
2013-01-30 06:15:00,32.4,31.4,29.40,NE,56,0.0,0.0,96,0.00,CLR,,0.15,0.0,WeatherDisplay:10.37,2013-01-30 12:15:00,
2013-01-30 06:20:00,32.4,31.4,29.39,West,278,0.0,0.0,96,0.00,CLR,,0.15,0.0,WeatherDisplay:10.37,2013-01-30 12:20:00,
2013-01-30 06:25:00,32.3,31.3,29.39,North,1,2.3,0.0,96,0.00,CLR,,0.15,0.0,WeatherDisplay:10.37,2013-01-30 12:25:00,
2013-01-30 06:30:00,32.3,31.3,29.38,NNE,26,3.5,3.5,96,0.00,CLR,,0.15,0.0,WeatherDisplay:10.37,2013-01-30 12:30:00,
2013-01-30 06:35:00,32.3,31.3,29.39,NNE,28,1.1,0.0,96,0.00,CLR,,0.15,0.0,WeatherDisplay:10.37,2013-01-30 12:35:00,
2013-01-30 06:40:00,32.2,31.2,29.38,NNW,333,3.5,3.5,96,0.00,CLR,,0.15,0.0,WeatherDisplay:10.37,2013-01-30 12:40:00,
2013-01-30 06:45:00,32.3,31.3,29.38,North,4,0.0,0.0,96,0.00,CLR,,0.15,0.0,WeatherDisplay:10.37,2013-01-30 12:45:00,
2013-01-30 06:50:00,32.3,31.3,29.38,North,1,1.1,1.1,96,0.00,CLR,,0.15,0.0,WeatherDisplay:10.37,2013-01-30 12:50:00,
2013-01-30 06:55:00,32.2,31.2,29.37,NE,35,0.0,0.0,96,0.00,CLR,,0.15,0.0,WeatherDisplay:10.37,2013-01-30 12:55:00,
2013-01-30 07:00:00,32.2,31.2,29.36,NE,35,2.3,2.3,96,0.00,OVC,,0.15,0.0,WeatherDisplay:10.37,2013-01-30 13:00:00,
2013-01-30 07:05:00,32.2,31.2,29.37,NNE,25,2.3,0.0,96,0.00,OVC,,0.15,0.0,WeatherDisplay:10.37,2013-01-30 13:05:00,
2013-01-30 07:10:00,32.2,31.2,29.37,NNW,342,0.0,0.0,96,0.00,OVC,,0.15,0.0,WeatherDisplay:10.37,2013-01-30 13:10:00,
2013-01-30 07:15:00,32.3,31.3,29.37,NE,49,0.0,0.0,96,0.00,OVC,,0.15,0.0,WeatherDisplay:10.37,2013-01-30 13:15:00,
2013-01-30 07:20:00,32.3,31.3,29.36,North,9,2.3,2.3,96,0.00,OVC,,0.15,0.0,WeatherDisplay:10.37,2013-01-30 13:20:00,
2013-01-30 07:25:00,32.3,31.3,29.37,North,9,1.1,1.1,96,0.00,OVC,,0.15,0.0,WeatherDisplay:10.37,2013-01-30 13:25:00,
2013-01-30 07:30:00,32.3,31.3,29.37,NNW,331,1.1,0.0,96,0.00,OVC,,0.15,0.0,WeatherDisplay:10.37,2013-01-30 13:30:00,
2013-01-30 07:35:00,32.3,31.3,29.36,North,11,2.3,2.3,96,0.00,OVC,,0.15,0.0,WeatherDisplay:10.37,2013-01-30 13:35:00,
2013-01-30 07:40:00,32.3,31.3,29.36,NNW,337,0.0,0.0,96,0.00,OVC,,0.15,0.0,WeatherDisplay:10.37,2013-01-30 13:40:00,
2013-01-30 07:45:00,32.3,31.3,29.36,NNE,17,3.5,0.0,96,0.00,OVC,,0.15,5.0,WeatherDisplay:10.37,2013-01-30 13:45:00,
2013-01-30 07:50:00,32.3,31.3,29.36,NNE,31,2.3,2.3,96,0.00,BKN,,0.15,7.0,WeatherDisplay:10.37,2013-01-30 13:50:00,
2013-01-30 07:55:00,32.3,31.3,29.36,NE,35,0.0,0.0,96,0.00,BKN,,0.15,11.0,WeatherDisplay:10.37,2013-01-30 13:55:00,
2013-01-30 08:00:00,32.4,31.4,29.37,NNE,28,2.3,2.3,96,0.00,BKN,,0.15,12.0,WeatherDisplay:10.37,2013-01-30 14:00:00,
2013-01-30 08:05:00,32.4,31.4,29.37,NNE,18,3.5,0.0,96,0.00,BKN,,0.15,14.0,WeatherDisplay:10.37,2013-01-30 14:05:00,
2013-01-30 08:10:00,32.4,31.4,29.36,North,6,4.6,4.6,96,0.00,BKN,,0.15,16.0,WeatherDisplay:10.37,2013-01-30 14:10:00,
2013-01-30 08:15:00,32.4,31.4,29.36,NE,50,2.3,2.3,96,0.00,BKN,,0.15,14.0,WeatherDisplay:10.37,2013-01-30 14:15:00,
2013-01-30 08:20:00,32.4,31.4,29.37,NE,38,0.0,0.0,96,0.00,BKN,,0.15,12.0,WeatherDisplay:10.37,2013-01-30 14:20:00,
2013-01-30 08:26:00,32.4,31.4,29.37,NE,38,0.0,0.0,96,0.00,BKN,,0.15,11.0,WeatherDisplay:10.37,2013-01-30 14:26:00,
2013-01-30 08:31:00,32.4,31.4,29.36,NNW,338,1.0,1.0,96,0.00,BKN,,0.15,19.0,WeatherDisplay:10.37,2013-01-30 14:31:00,
2013-01-30 08:36:00,32.4,31.4,29.35,NNE,23,0.0,0.1,96,0.00,BKN,,0.15,23.0,WeatherDisplay:10.37,2013-01-30 14:36:00,
2013-01-30 08:41:00,32.4,31.4,29.36,West,267,0.0,0.4,96,0.00,BKN,,0.15,18.0,WeatherDisplay:10.37,2013-01-30 14:41:00,
2013-01-30 08:46:00,32.4,31.4,29.36,NNE,33,1.1,1.1,96,0.00,BKN,,0.15,21.0,WeatherDisplay:10.37,2013-01-30 14:46:00,
2013-01-30 08:51:00,32.4,31.4,29.35,NE,34,0.0,0.0,96,0.00,BKN,,0.15,26.0,WeatherDisplay:10.37,2013-01-30 14:51:00,
2013-01-30 08:56:00,32.4,31.4,29.35,NNE,12,0.0,0.0,96,0.00,BKN,,0.15,26.0,WeatherDisplay:10.37,2013-01-30 14:56:00,
2013-01-30 09:01:00,32.3,31.3,29.34,NNW,347,0.0,0.0,96,0.00,BKN,,0.15,21.0,WeatherDisplay:10.37,2013-01-30 15:01:00,
2013-01-30 09:06:00,32.3,31.3,29.34,North,352,0.0,0.0,96,0.00,BKN,,0.15,9.0,WeatherDisplay:10.37,2013-01-30 15:06:00,
2013-01-30 09:11:00,32.3,31.3,29.34,North,352,0.0,0.0,96,0.00,BKN,,0.15,11.0,WeatherDisplay:10.37,2013-01-30 15:11:00,
2013-01-30 09:16:00,32.2,31.2,29.34,NNE,27,0.0,0.1,96,0.00,OVC,,0.15,16.0,WeatherDisplay:10.37,2013-01-30 15:16:00,
2013-01-30 09:21:00,32.0,31.0,29.34,NNE,27,0.0,0.0,96,0.00,OVC,,0.15,12.0,WeatherDisplay:10.37,2013-01-30 15:21:00,
2013-01-30 09:26:00,31.8,30.8,29.34,North,9,1.1,1.1,96,0.00,OVC,,0.15,14.0,WeatherDisplay:10.37,2013-01-30 15:26:00,
2013-01-30 09:31:00,31.7,30.7,29.34,North,9,0.0,0.0,96,0.00,OVC,,0.15,16.0,WeatherDisplay:10.37,2013-01-30 15:31:00,
2013-01-30 09:36:00,31.7,30.7,29.33,North,9,0.0,0.1,96,0.00,OVC,,0.15,12.0,WeatherDisplay:10.37,2013-01-30 15:36:00,
2013-01-30 09:41:00,31.5,30.5,29.32,North,9,0.0,0.0,96,0.00,OVC,,0.15,12.0,WeatherDisplay:10.37,2013-01-30 15:41:00,
2013-01-30 09:46:00,31.2,30.2,29.32,North,9,3.5,0.0,96,0.00,OVC,,0.15,16.0,WeatherDisplay:10.37,2013-01-30 15:46:00,
2013-01-30 09:51:00,31.0,30.0,29.32,North,9,0.0,0.0,96,0.00,OVC,,0.15,19.0,WeatherDisplay:10.37,2013-01-30 15:51:00,
2013-01-30 09:56:00,30.8,29.8,29.31,North,9,0.0,0.0,96,0.00,BKN,,0.15,16.0,WeatherDisplay:10.37,2013-01-30 15:56:00,
2013-01-30 10:01:00,30.7,29.7,29.32,North,9,0.0,0.0,96,0.00,OVC,,0.15,11.0,WeatherDisplay:10.37,2013-01-30 16:01:00,
2013-01-30 10:06:00,30.7,29.7,29.32,North,9,0.0,0.0,96,0.00,OVC,,0.15,9.0,WeatherDisplay:10.37,2013-01-30 16:06:00,
2013-01-30 10:11:00,30.7,29.7,29.32,North,9,0.0,0.0,96,0.00,OVC,,0.15,16.0,WeatherDisplay:10.37,2013-01-30 16:11:00,
2013-01-30 10:16:00,30.7,29.7,29.31,North,9,0.0,0.0,96,0.00,OVC,,0.15,18.0,WeatherDisplay:10.37,2013-01-30 16:16:00,
2013-01-30 10:21:00,30.5,29.5,29.31,North,9,0.0,0.0,96,0.00,OVC,,0.15,12.0,WeatherDisplay:10.37,2013-01-30 16:21:00,
2013-01-30 10:26:00,30.4,29.4,29.32,North,9,0.0,0.0,96,0.00,OVC,,0.15,23.0,WeatherDisplay:10.37,2013-01-30 16:26:00,
2013-01-30 10:31:00,30.4,29.4,29.32,North,9,0.0,0.0,96,0.00,OVC,,0.15,26.0,WeatherDisplay:10.37,2013-01-30 16:31:00,
2013-01-30 10:36:00,30.6,29.6,29.32,North,9,0.0,0.0,96,0.00,BKN,,0.15,19.0,WeatherDisplay:10.37,2013-01-30 16:36:00,
2013-01-30 10:41:00,30.7,29.7,29.33,North,9,0.0,0.0,96,0.00,OVC,,0.15,14.0,WeatherDisplay:10.37,2013-01-30 16:41:00,
2013-01-30 10:46:00,30.6,29.6,29.34,North,9,0.0,0.0,96,0.00,OVC,,0.15,9.0,WeatherDisplay:10.37,2013-01-30 16:46:00,
2013-01-30 10:51:00,30.4,29.4,29.34,North,9,0.0,0.0,96,0.00,OVC,,0.15,12.0,WeatherDisplay:10.37,2013-01-30 16:51:00,
2013-01-30 10:56:00,30.0,29.0,29.34,North,9,0.0,0.0,96,0.00,OVC,,0.15,12.0,WeatherDisplay:10.37,2013-01-30 16:56:00,
2013-01-30 11:01:00,29.8,28.8,29.34,North,9,0.0,0.0,96,0.00,OVC,,0.15,16.0,WeatherDisplay:10.37,2013-01-30 17:01:00,
2013-01-30 11:06:00,29.8,28.8,29.34,North,9,0.0,0.0,96,0.00,OVC,,0.15,18.0,WeatherDisplay:10.37,2013-01-30 17:06:00,
2013-01-30 11:11:00,29.8,28.8,29.34,North,9,0.0,0.0,96,0.00,OVC,,0.15,18.0,WeatherDisplay:10.37,2013-01-30 17:11:00,
2013-01-30 11:16:00,29.9,28.9,29.33,North,9,0.0,0.0,96,0.00,OVC,,0.15,23.0,WeatherDisplay:10.37,2013-01-30 17:16:00,
2013-01-30 11:21:00,30.1,29.1,29.33,North,9,0.0,0.0,96,0.00,OVC,,0.15,19.0,WeatherDisplay:10.37,2013-01-30 17:21:00,
2013-01-30 11:26:00,30.0,29.0,29.35,North,9,0.0,0.0,96,0.00,OVC,,0.15,14.0,WeatherDisplay:10.37,2013-01-30 17:26:00,
2013-01-30 11:31:00,29.7,28.7,29.35,North,9,0.0,0.0,96,0.00,OVC,,0.15,16.0,WeatherDisplay:10.37,2013-01-30 17:31:00,
2013-01-30 11:36:00,29.5,28.5,29.33,North,9,0.0,0.0,96,0.00,OVC,,0.15,26.0,WeatherDisplay:10.37,2013-01-30 17:36:00,
2013-01-30 11:41:00,29.4,28.4,29.34,North,9,0.0,0.0,96,0.00,OVC,,0.15,19.0,WeatherDisplay:10.37,2013-01-30 17:41:00,
2013-01-30 11:46:00,29.3,28.3,29.35,North,9,0.0,0.0,96,0.00,OVC,,0.15,16.0,WeatherDisplay:10.37,2013-01-30 17:46:00,
2013-01-30 11:51:00,29.4,28.4,29.35,North,9,0.0,0.0,96,0.00,OVC,,0.15,14.0,WeatherDisplay:10.37,2013-01-30 17:51:00,
2013-01-30 11:56:00,29.5,28.5,29.35,North,9,0.0,0.0,96,0.00,OVC,,0.15,14.0,WeatherDisplay:10.37,2013-01-30 17:56:00,
2013-01-30 12:01:00,29.6,28.6,29.34,North,9,0.0,0.0,96,0.00,OVC,,0.15,14.0,WeatherDisplay:10.37,2013-01-30 18:01:00,
2013-01-30 12:06:00,29.5,28.5,29.33,North,9,0.0,0.0,96,0.00,OVC,,0.15,25.0,WeatherDisplay:10.37,2013-01-30 18:06:00,
2013-01-30 12:11:00,29.4,28.4,29.34,North,9,0.0,0.0,96,0.00,OVC,,0.15,21.0,WeatherDisplay:10.37,2013-01-30 18:11:00,
2013-01-30 12:16:00,29.2,28.2,29.33,North,9,0.0,0.0,96,0.00,OVC,,0.15,23.0,WeatherDisplay:10.37,2013-01-30 18:16:00,
2013-01-30 12:21:00,29.2,28.2,29.31,North,9,0.0,0.0,96,0.00,BKN,,0.15,46.0,WeatherDisplay:10.37,2013-01-30 18:21:00,
2013-01-30 12:26:00,29.3,28.3,29.32,North,9,0.0,0.0,96,0.00,BKN,,0.15,32.0,WeatherDisplay:10.37,2013-01-30 18:26:00,
2013-01-30 12:31:00,29.5,28.5,29.32,North,9,0.0,0.0,96,0.00,BKN,,0.15,28.0,WeatherDisplay:10.37,2013-01-30 18:31:00,
2013-01-30 12:36:00,29.4,28.4,29.31,North,9,0.0,0.0,96,0.00,BKN,,0.15,56.0,WeatherDisplay:10.37,2013-01-30 18:36:00,
2013-01-30 12:41:00,29.4,28.4,29.30,North,9,0.0,0.0,96,0.00,BKN,,0.15,32.0,WeatherDisplay:10.37,2013-01-30 18:41:00,
2013-01-30 12:46:00,29.4,28.4,29.30,North,9,0.0,0.0,96,0.00,BKN,,0.15,47.0,WeatherDisplay:10.37,2013-01-30 18:46:00,
2013-01-30 12:51:00,29.6,28.6,29.31,NNW,342,0.0,0.0,96,0.00,BKN,,0.15,30.0,WeatherDisplay:10.37,2013-01-30 18:51:00,
2013-01-30 12:56:00,29.5,28.5,29.30,NNW,342,0.0,0.0,96,0.01,RA,,0.16,33.0,WeatherDisplay:10.37,2013-01-30 18:56:00,
2013-01-30 13:01:00,29.3,28.3,29.30,NNW,342,0.0,0.0,96,0.01,RA,,0.16,30.0,WeatherDisplay:10.37,2013-01-30 19:01:00,
2013-01-30 13:06:00,29.2,28.2,29.31,NNW,342,0.0,0.0,96,0.01,BKN,,0.16,26.0,WeatherDisplay:10.37,2013-01-30 19:06:00,
2013-01-30 13:11:00,29.1,28.1,29.31,NNW,342,0.0,0.0,96,0.01,BKN,,0.16,19.0,WeatherDisplay:10.37,2013-01-30 19:11:00,
2013-01-30 13:16:00,28.9,27.9,29.31,NNW,342,0.0,0.0,96,0.01,OVC,,0.16,19.0,WeatherDisplay:10.37,2013-01-30 19:16:00,
2013-01-30 13:21:00,28.8,27.8,29.31,NNW,342,0.0,0.0,96,0.02,RA,,0.17,18.0,WeatherDisplay:10.37,2013-01-30 19:21:00,
2013-01-30 13:26:00,28.7,27.7,29.31,NNW,342,0.0,0.0,96,0.02,RA,,0.17,18.0,WeatherDisplay:10.37,2013-01-30 19:26:00,
2013-01-30 13:31:00,28.4,27.4,29.31,NNW,342,0.0,0.0,96,0.02,OVC,,0.17,14.0,WeatherDisplay:10.37,2013-01-30 19:31:00,
2013-01-30 13:36:00,28.3,27.3,29.31,NNW,342,0.0,0.0,96,0.02,OVC,,0.17,14.0,WeatherDisplay:10.37,2013-01-30 19:36:00,
2013-01-30 13:41:00,28.0,27.0,29.32,NNW,342,0.0,0.0,96,0.02,OVC,,0.17,12.0,WeatherDisplay:10.37,2013-01-30 19:41:00,
2013-01-30 13:46:00,27.8,26.8,29.31,NNW,342,0.0,0.0,96,0.02,OVC,,0.17,14.0,WeatherDisplay:10.37,2013-01-30 19:46:00,
2013-01-30 13:51:00,27.7,26.7,29.32,NNW,342,0.0,0.0,96,0.02,OVC,,0.17,14.0,WeatherDisplay:10.37,2013-01-30 19:51:00,
2013-01-30 13:56:00,27.5,26.5,29.32,NNW,342,0.0,0.0,96,0.02,RA,,0.18,12.0,WeatherDisplay:10.37,2013-01-30 19:56:00,
2013-01-30 14:01:00,27.5,26.5,29.32,NNW,342,0.0,0.0,96,0.02,RA,,0.18,12.0,WeatherDisplay:10.37,2013-01-30 20:01:00,
2013-01-30 14:06:00,27.5,26.5,29.32,NNW,342,0.0,0.0,96,0.02,OVC,,0.18,12.0,WeatherDisplay:10.37,2013-01-30 20:06:00,
2013-01-30 14:11:00,27.4,26.4,29.32,NNW,342,0.0,0.0,96,0.02,OVC,,0.18,12.0,WeatherDisplay:10.37,2013-01-30 20:11:00,
2013-01-30 14:16:00,27.3,26.3,29.32,NNW,342,0.0,0.0,96,0.02,OVC,,0.18,11.0,WeatherDisplay:10.37,2013-01-30 20:16:00,
2013-01-30 14:21:00,27.3,26.3,29.32,NNW,342,0.0,0.0,96,0.01,OVC,,0.18,11.0,WeatherDisplay:10.37,2013-01-30 20:21:00,
2013-01-30 14:26:00,27.3,26.3,29.33,NNW,342,0.0,0.0,96,0.01,OVC,,0.18,9.0,WeatherDisplay:10.37,2013-01-30 20:26:00,
2013-01-30 14:31:00,27.3,26.3,29.33,NNW,342,0.0,0.0,96,0.01,OVC,,0.18,11.0,WeatherDisplay:10.37,2013-01-30 20:31:00,
2013-01-30 14:36:00,27.2,26.2,29.33,NNW,342,0.0,0.0,96,0.01,OVC,,0.18,9.0,WeatherDisplay:10.37,2013-01-30 20:36:00,
2013-01-30 14:41:00,27.2,26.2,29.33,NNW,342,0.0,0.0,96,0.01,OVC,,0.18,11.0,WeatherDisplay:10.37,2013-01-30 20:41:00,
2013-01-30 14:46:00,27.2,26.2,29.33,NNW,342,0.0,0.0,96,0.01,OVC,,0.18,9.0,WeatherDisplay:10.37,2013-01-30 20:46:00,
2013-01-30 14:51:00,27.2,26.2,29.34,NNW,342,0.0,0.0,96,0.01,OVC,,0.18,9.0,WeatherDisplay:10.37,2013-01-30 20:51:00,
2013-01-30 14:56:00,27.2,26.2,29.34,NNW,342,0.0,0.0,96,0.00,OVC,,0.18,7.0,WeatherDisplay:10.37,2013-01-30 20:56:00,
2013-01-30 15:01:00,27.2,26.2,29.35,NNW,342,0.0,0.0,96,0.00,OVC,,0.18,7.0,WeatherDisplay:10.37,2013-01-30 21:01:00,
2013-01-30 15:06:00,27.2,26.2,29.35,NNW,342,0.0,0.0,96,0.00,OVC,,0.18,9.0,WeatherDisplay:10.37,2013-01-30 21:06:00,
2013-01-30 15:11:00,26.8,25.8,29.35,NNW,342,0.0,0.0,96,0.00,OVC,,0.18,9.0,WeatherDisplay:10.37,2013-01-30 21:11:00,
2013-01-30 15:16:00,26.6,25.4,29.35,NNW,342,0.0,0.0,95,0.00,OVC,,0.18,9.0,WeatherDisplay:10.37,2013-01-30 21:16:00,
2013-01-30 15:21:00,26.6,25.4,29.35,NNW,342,0.0,0.0,95,0.00,OVC,,0.18,9.0,WeatherDisplay:10.37,2013-01-30 21:21:00,
2013-01-30 15:26:00,26.6,25.4,29.36,NNW,342,0.0,0.0,95,0.00,OVC,,0.18,9.0,WeatherDisplay:10.37,2013-01-30 21:26:00,
2013-01-30 15:31:00,26.6,25.4,29.36,NNW,342,0.0,0.0,95,0.00,OVC,,0.18,9.0,WeatherDisplay:10.37,2013-01-30 21:31:00,
2013-01-30 15:36:00,26.6,25.4,29.36,NNW,342,0.0,0.0,95,0.00,OVC,,0.18,9.0,WeatherDisplay:10.37,2013-01-30 21:36:00,
2013-01-30 15:41:00,26.6,25.4,29.36,NNW,342,0.0,0.0,95,0.00,OVC,,0.18,9.0,WeatherDisplay:10.37,2013-01-30 21:41:00,
2013-01-30 15:46:00,26.7,25.5,29.36,NNW,342,0.0,0.0,95,0.00,OVC,,0.18,9.0,WeatherDisplay:10.37,2013-01-30 21:46:00,
2013-01-30 15:51:00,26.6,25.4,29.36,NNW,342,0.0,0.0,95,0.00,OVC,,0.18,7.0,WeatherDisplay:10.37,2013-01-30 21:51:00,
2013-01-30 15:56:00,26.6,25.4,29.36,NNW,342,0.0,0.0,95,0.00,OVC,,0.18,7.0,WeatherDisplay:10.37,2013-01-30 21:56:00,
2013-01-30 16:01:00,26.4,25.2,29.36,NNW,342,0.0,0.0,95,0.00,OVC,,0.18,7.0,WeatherDisplay:10.37,2013-01-30 22:01:00,
2013-01-30 16:06:00,26.4,25.2,29.37,NNW,342,0.0,0.0,95,0.00,OVC,,0.18,5.0,WeatherDisplay:10.37,2013-01-30 22:06:00,
2013-01-30 16:11:00,26.4,25.2,29.37,NNW,342,0.0,0.0,95,0.00,OVC,,0.18,5.0,WeatherDisplay:10.37,2013-01-30 22:11:00,
2013-01-30 16:16:00,26.3,25.1,29.37,NNW,342,0.0,0.0,95,0.00,OVC,,0.18,0.0,WeatherDisplay:10.37,2013-01-30 22:16:00,
2013-01-30 16:21:00,26.3,25.1,29.38,NNW,342,0.0,0.0,95,0.00,OVC,,0.18,0.0,WeatherDisplay:10.37,2013-01-30 22:21:00,
2013-01-30 16:26:00,26.4,25.2,29.38,NNW,342,0.0,0.0,95,0.00,OVC,,0.18,0.0,WeatherDisplay:10.37,2013-01-30 22:26:00,
2013-01-30 16:31:00,26.3,25.1,29.39,NNW,342,0.0,0.0,95,0.00,OVC,,0.18,0.0,WeatherDisplay:10.37,2013-01-30 22:31:00,
2013-01-30 16:36:00,26.3,25.1,29.39,NNW,342,0.0,0.0,95,0.00,OVC,,0.18,0.0,WeatherDisplay:10.37,2013-01-30 22:36:00,
2013-01-30 16:41:00,26.3,25.1,29.40,NNW,342,0.0,0.0,95,0.00,OVC,,0.18,0.0,WeatherDisplay:10.37,2013-01-30 22:41:00,
2013-01-30 16:46:00,26.2,25.0,29.40,NNW,342,0.0,0.0,95,0.00,OVC,,0.18,0.0,WeatherDisplay:10.37,2013-01-30 22:46:00,
2013-01-30 16:51:00,26.2,25.0,29.41,NNW,342,0.0,0.0,95,0.00,OVC,,0.18,0.0,WeatherDisplay:10.37,2013-01-30 22:51:00,
2013-01-30 16:56:00,26.1,24.9,29.41,NNW,342,0.0,0.0,95,0.00,OVC,,0.18,0.0,WeatherDisplay:10.37,2013-01-30 22:56:00,
2013-01-30 17:01:00,26.0,24.8,29.42,NNW,342,0.0,0.0,95,0.00,OVC,,0.18,0.0,WeatherDisplay:10.37,2013-01-30 23:01:00,
2013-01-30 17:06:00,25.8,24.6,29.42,NNW,342,0.0,0.0,95,0.00,OVC,,0.18,0.0,WeatherDisplay:10.37,2013-01-30 23:06:00,
2013-01-30 17:11:00,25.7,24.5,29.42,NNW,342,0.0,0.0,95,0.00,OVC,,0.18,0.0,WeatherDisplay:10.37,2013-01-30 23:11:00,
2013-01-30 17:16:00,25.7,24.2,29.42,NNW,342,0.0,0.0,94,0.00,OVC,,0.18,0.0,WeatherDisplay:10.37,2013-01-30 23:16:00,
2013-01-30 17:21:00,25.6,24.1,29.43,NNW,342,0.0,0.0,94,0.00,OVC,,0.18,0.0,WeatherDisplay:10.37,2013-01-30 23:21:00,
2013-01-30 17:26:00,25.6,24.4,29.43,NNW,342,0.0,0.0,95,0.00,OVC,,0.18,0.0,WeatherDisplay:10.37,2013-01-30 23:26:00,
2013-01-30 17:31:00,25.5,24.3,29.43,NNW,342,0.0,0.0,95,0.00,OVC,,0.18,0.0,WeatherDisplay:10.37,2013-01-30 23:31:00,
2013-01-30 17:36:00,25.4,23.9,29.44,NNW,342,0.0,0.0,94,0.00,CLR,,0.18,0.0,WeatherDisplay:10.37,2013-01-30 23:36:00,
2013-01-30 17:41:00,25.3,23.8,29.44,NNW,342,0.0,0.0,94,0.00,CLR,,0.18,0.0,WeatherDisplay:10.37,2013-01-30 23:41:00,
2013-01-30 17:46:00,25.2,23.7,29.44,NNW,342,0.0,0.0,94,0.00,CLR,,0.18,0.0,WeatherDisplay:10.37,2013-01-30 23:46:00,
2013-01-30 17:51:00,25.1,23.6,29.44,NNW,342,0.0,0.0,94,0.00,CLR,,0.18,0.0,WeatherDisplay:10.37,2013-01-30 23:51:00,
2013-01-30 17:56:00,25.0,23.5,29.45,NNW,342,0.0,0.0,94,0.00,CLR,,0.18,0.0,WeatherDisplay:10.37,2013-01-30 23:56:00,
2013-01-30 18:01:00,25.0,23.5,29.45,NNW,342,0.0,0.0,94,0.00,CLR,,0.18,0.0,WeatherDisplay:10.37,2013-01-31 00:01:00,
2013-01-30 18:06:00,25.0,23.5,29.45,NNW,342,0.0,0.0,94,0.00,CLR,,0.18,0.0,WeatherDisplay:10.37,2013-01-31 00:06:00,
2013-01-30 18:11:00,24.9,23.4,29.45,NNW,342,0.0,0.0,94,0.00,CLR,,0.18,0.0,WeatherDisplay:10.37,2013-01-31 00:11:00,
2013-01-30 18:16:00,25.0,23.5,29.46,NNW,342,0.0,0.0,94,0.00,CLR,,0.18,0.0,WeatherDisplay:10.37,2013-01-31 00:16:00,
2013-01-30 18:21:00,24.9,23.4,29.46,NNW,342,0.0,0.0,94,0.00,CLR,,0.18,0.0,WeatherDisplay:10.37,2013-01-31 00:21:00,
2013-01-30 18:26:00,24.8,23.3,29.46,NNW,342,0.0,0.0,94,0.00,CLR,,0.18,0.0,WeatherDisplay:10.37,2013-01-31 00:26:00,
2013-01-30 18:31:00,24.4,22.9,29.46,NNW,342,0.0,0.0,94,0.00,CLR,,0.18,0.0,WeatherDisplay:10.37,2013-01-31 00:31:00,
2013-01-30 18:36:00,23.8,22.3,29.47,NNW,342,0.0,0.0,94,0.00,CLR,,0.18,0.0,WeatherDisplay:10.37,2013-01-31 00:36:00,
2013-01-30 18:41:00,23.4,21.9,29.47,NNW,342,0.0,0.0,94,0.00,CLR,,0.18,0.0,WeatherDisplay:10.37,2013-01-31 00:41:00,
2013-01-30 18:46:00,23.1,21.6,29.47,NNW,342,0.0,0.0,94,0.00,CLR,,0.18,0.0,WeatherDisplay:10.37,2013-01-31 00:46:00,
2013-01-30 18:51:00,22.9,21.4,29.48,NNW,342,0.0,0.0,94,0.00,CLR,,0.18,0.0,WeatherDisplay:10.37,2013-01-31 00:51:00,
2013-01-30 18:56:00,22.8,21.3,29.48,NNW,342,0.0,0.0,94,0.00,CLR,,0.18,0.0,WeatherDisplay:10.37,2013-01-31 00:56:00,
2013-01-30 19:01:00,22.3,20.8,29.48,NNW,342,0.0,0.0,94,0.00,CLR,,0.18,0.0,WeatherDisplay:10.37,2013-01-31 01:01:00,
2013-01-30 19:06:00,21.8,20.1,29.49,NNW,342,0.0,0.0,93,0.00,CLR,,0.18,0.0,WeatherDisplay:10.37,2013-01-31 01:06:00,
2013-01-30 19:11:00,21.4,19.7,29.49,NNW,342,0.0,0.0,93,0.00,CLR,,0.18,0.0,WeatherDisplay:10.37,2013-01-31 01:11:00,
2013-01-30 19:16:00,21.2,19.5,29.50,NNW,342,0.0,0.0,93,0.00,CLR,,0.18,0.0,WeatherDisplay:10.37,2013-01-31 01:16:00,
2013-01-30 19:21:00,21.0,19.3,29.50,NNW,342,0.0,0.0,93,0.00,CLR,,0.18,0.0,WeatherDisplay:10.37,2013-01-31 01:21:00,
2013-01-30 19:26:00,20.8,19.1,29.50,NNW,342,0.0,0.0,93,0.00,CLR,,0.18,0.0,WeatherDisplay:10.37,2013-01-31 01:26:00,
2013-01-30 19:31:00,20.8,19.1,29.50,NNW,342,0.0,0.0,93,0.00,CLR,,0.18,0.0,WeatherDisplay:10.37,2013-01-31 01:31:00,
2013-01-30 19:36:00,20.6,18.9,29.50,NNW,342,0.0,0.0,93,0.00,CLR,,0.18,0.0,WeatherDisplay:10.37,2013-01-31 01:36:00,
2013-01-30 19:41:00,20.4,18.7,29.50,NNW,342,0.0,0.0,93,0.00,CLR,,0.18,0.0,WeatherDisplay:10.37,2013-01-31 01:41:00,
2013-01-30 19:46:00,20.3,18.6,29.51,NNW,342,0.0,0.0,93,0.00,CLR,,0.18,0.0,WeatherDisplay:10.37,2013-01-31 01:46:00,
2013-01-30 19:51:00,20.3,18.6,29.51,NNW,342,0.0,0.0,93,0.00,CLR,,0.18,0.0,WeatherDisplay:10.37,2013-01-31 01:51:00,
2013-01-30 19:56:00,20.1,18.1,29.51,NNW,342,0.0,0.0,92,0.00,CLR,,0.18,0.0,WeatherDisplay:10.37,2013-01-31 01:56:00,
2013-01-30 20:01:00,20.1,18.4,29.51,NNW,342,0.0,0.0,93,0.00,CLR,,0.18,0.0,WeatherDisplay:10.37,2013-01-31 02:01:00,
2013-01-30 20:06:00,20.0,18.3,29.51,NNW,342,0.0,0.0,93,0.00,CLR,,0.18,0.0,WeatherDisplay:10.37,2013-01-31 02:06:00,
2013-01-30 20:11:00,19.8,17.9,29.52,NNW,342,0.0,0.0,92,0.00,CLR,,0.18,0.0,WeatherDisplay:10.37,2013-01-31 02:11:00,
2013-01-30 20:16:00,19.8,17.9,29.52,NNW,342,0.0,0.0,92,0.00,CLR,,0.18,0.0,WeatherDisplay:10.37,2013-01-31 02:16:00,
2013-01-30 20:21:00,19.8,17.9,29.53,NNW,342,0.0,0.0,92,0.00,CLR,,0.18,0.0,WeatherDisplay:10.37,2013-01-31 02:21:00,
2013-01-30 20:26:00,19.8,17.9,29.53,NNW,342,0.0,0.0,92,0.00,CLR,,0.18,0.0,WeatherDisplay:10.37,2013-01-31 02:26:00,
2013-01-30 20:31:00,19.7,17.8,29.53,NNW,342,0.0,0.0,92,0.00,CLR,,0.18,0.0,WeatherDisplay:10.37,2013-01-31 02:31:00,
2013-01-30 20:36:00,19.6,17.7,29.53,NNW,342,0.0,0.0,92,0.00,CLR,,0.18,0.0,WeatherDisplay:10.37,2013-01-31 02:36:00,
2013-01-30 20:41:00,19.4,17.5,29.53,NNW,342,0.0,0.0,92,0.00,CLR,,0.18,0.0,WeatherDisplay:10.37,2013-01-31 02:41:00,
2013-01-30 20:46:00,19.3,17.4,29.53,NNW,342,0.0,0.0,92,0.00,CLR,,0.18,0.0,WeatherDisplay:10.37,2013-01-31 02:46:00,
2013-01-30 20:51:00,19.0,17.1,29.53,NNW,342,0.0,0.0,92,0.00,CLR,,0.18,0.0,WeatherDisplay:10.37,2013-01-31 02:51:00,
2013-01-30 20:56:00,18.7,16.5,29.54,NNW,342,0.0,0.0,91,0.00,CLR,,0.18,0.0,WeatherDisplay:10.37,2013-01-31 02:56:00,
2013-01-30 21:01:00,18.5,16.3,29.54,NNW,342,0.0,0.0,91,0.00,CLR,,0.18,0.0,WeatherDisplay:10.37,2013-01-31 03:01:00,
2013-01-30 21:06:00,18.3,16.1,29.55,NNW,342,0.0,0.0,91,0.00,CLR,,0.18,0.0,WeatherDisplay:10.37,2013-01-31 03:06:00,
2013-01-30 21:11:00,18.2,16.0,29.55,NNW,342,0.0,0.0,91,0.00,CLR,,0.18,0.0,WeatherDisplay:10.37,2013-01-31 03:11:00,
2013-01-30 21:16:00,18.0,15.8,29.56,NNW,342,0.0,0.0,91,0.00,CLR,,0.18,0.0,WeatherDisplay:10.37,2013-01-31 03:16:00,
2013-01-30 21:21:00,17.9,15.7,29.56,NNW,342,0.0,0.0,91,0.00,CLR,,0.18,0.0,WeatherDisplay:10.37,2013-01-31 03:21:00,
2013-01-30 21:26:00,17.8,15.6,29.56,NNW,342,0.0,0.0,91,0.00,CLR,,0.18,0.0,WeatherDisplay:10.37,2013-01-31 03:26:00,
2013-01-30 21:31:00,17.8,15.6,29.56,NNW,342,0.0,0.0,91,0.00,CLR,,0.18,0.0,WeatherDisplay:10.37,2013-01-31 03:31:00,
2013-01-30 21:36:00,17.8,15.6,29.57,NNW,342,0.0,0.0,91,0.00,CLR,,0.18,0.0,WeatherDisplay:10.37,2013-01-31 03:36:00,
2013-01-30 21:41:00,17.7,15.5,29.57,NNW,342,0.0,0.0,91,0.00,CLR,,0.18,0.0,WeatherDisplay:10.37,2013-01-31 03:41:00,
2013-01-30 21:46:00,17.5,15.3,29.57,NNW,342,0.0,0.0,91,0.00,CLR,,0.18,0.0,WeatherDisplay:10.37,2013-01-31 03:46:00,
2013-01-30 21:51:00,17.4,15.0,29.57,NNW,342,0.0,0.0,90,0.00,CLR,,0.18,0.0,WeatherDisplay:10.37,2013-01-31 03:51:00,
2013-01-30 21:56:00,17.2,14.8,29.57,NNW,342,0.0,0.0,90,0.00,CLR,,0.18,0.0,WeatherDisplay:10.37,2013-01-31 03:56:00,
2013-01-30 22:01:00,17.1,14.7,29.58,NNW,342,0.0,0.0,90,0.00,CLR,,0.18,0.0,WeatherDisplay:10.37,2013-01-31 04:01:00,
2013-01-30 22:06:00,17.1,14.7,29.58,NNW,342,0.0,0.0,90,0.00,CLR,,0.18,0.0,WeatherDisplay:10.37,2013-01-31 04:06:00,
2013-01-30 22:11:00,17.1,14.7,29.58,NNW,342,0.0,0.0,90,0.00,CLR,,0.18,0.0,WeatherDisplay:10.37,2013-01-31 04:11:00,
2013-01-30 22:16:00,17.1,14.7,29.58,NNW,342,0.0,0.0,90,0.00,CLR,,0.18,0.0,WeatherDisplay:10.37,2013-01-31 04:16:00,
2013-01-30 22:21:00,17.1,14.7,29.59,NNW,342,0.0,0.0,90,0.00,CLR,,0.18,0.0,WeatherDisplay:10.37,2013-01-31 04:21:00,
2013-01-30 22:26:00,17.1,14.7,29.59,NNW,342,0.0,0.0,90,0.00,CLR,,0.18,0.0,WeatherDisplay:10.37,2013-01-31 04:26:00,
2013-01-30 22:31:00,17.0,14.6,29.59,NNW,342,0.0,0.0,90,0.00,CLR,,0.18,0.0,WeatherDisplay:10.37,2013-01-31 04:31:00,
2013-01-30 22:36:00,16.9,14.5,29.59,NNW,342,0.0,0.0,90,0.00,CLR,,0.18,0.0,WeatherDisplay:10.37,2013-01-31 04:36:00,
2013-01-30 22:41:00,16.8,14.4,29.60,NNW,342,0.0,0.0,90,0.00,CLR,,0.18,0.0,WeatherDisplay:10.37,2013-01-31 04:41:00,
2013-01-30 22:46:00,16.7,14.0,29.60,NNW,342,0.0,0.0,89,0.00,CLR,,0.18,0.0,WeatherDisplay:10.37,2013-01-31 04:46:00,
2013-01-30 22:51:00,16.7,14.0,29.61,NNW,342,0.0,0.0,89,0.00,CLR,,0.18,0.0,WeatherDisplay:10.37,2013-01-31 04:51:00,
2013-01-30 22:56:00,16.6,13.9,29.61,NNW,342,0.0,0.0,89,0.00,CLR,,0.18,0.0,WeatherDisplay:10.37,2013-01-31 04:56:00,
2013-01-30 23:00:00,16.5,13.8,29.61,NNW,342,0.0,0.0,89,0.00,CLR,,0.18,0.0,WeatherDisplay:10.37,2013-01-31 05:00:00,
2013-01-30 23:04:00,16.5,13.8,29.61,NNW,342,0.0,0.0,89,0.00,CLR,,0.18,0.0,WeatherDisplay:10.37,2013-01-31 05:04:00,
2013-01-30 23:09:00,16.4,13.7,29.61,NNW,342,0.0,0.0,89,0.00,CLR,,0.18,0.0,WeatherDisplay:10.37,2013-01-31 05:09:00,
2013-01-30 23:14:00,16.4,13.7,29.62,NNW,342,0.0,0.0,89,0.00,CLR,,0.18,0.0,WeatherDisplay:10.37,2013-01-31 05:14:00,
2013-01-30 23:19:00,16.3,13.6,29.62,NNW,342,0.0,0.0,89,0.00,CLR,,0.18,0.0,WeatherDisplay:10.37,2013-01-31 05:19:00,
2013-01-30 23:24:00,16.3,13.6,29.62,NNW,342,0.0,0.0,89,0.00,CLR,,0.18,0.0,WeatherDisplay:10.37,2013-01-31 05:24:00,
2013-01-30 23:29:00,16.4,13.7,29.63,NNW,342,0.0,0.0,89,0.00,CLR,,0.18,0.0,WeatherDisplay:10.37,2013-01-31 05:29:00,
2013-01-30 23:34:00,16.4,13.7,29.63,NNW,342,0.0,0.0,89,0.00,CLR,,0.18,0.0,WeatherDisplay:10.37,2013-01-31 05:34:00,
2013-01-30 23:39:00,16.4,13.7,29.63,NNW,342,0.0,0.0,89,0.00,CLR,,0.18,0.0,WeatherDisplay:10.37,2013-01-31 05:39:00,
2013-01-30 23:44:00,16.5,13.8,29.64,NNW,342,0.0,0.0,89,0.00,CLR,,0.18,0.0,WeatherDisplay:10.37,2013-01-31 05:44:00,
2013-01-30 23:49:00,16.5,13.8,29.64,NNW,342,0.0,0.0,89,0.00,CLR,,0.18,0.0,WeatherDisplay:10.37,2013-01-31 05:49:00,
2013-01-30 23:54:00,16.6,13.9,29.64,NNW,342,0.0,0.0,89,0.00,CLR,,0.18,0.0,WeatherDisplay:10.37,2013-01-31 05:54:00,
2013-01-30 23:59:00,16.5,13.8,29.64,NNW,342,0.0,0.0,89,0.00,CLR,,0.18,0.0,WeatherDisplay:10.37,2013-01-31 05:59:00,